When you browse on this site, cookies collect data to enhance your experience and personalize the content and advertising you see.
Visit our Privacy Policy to learn more. By continuing to use the site, you agree to this use of cookies and data.
  • En España
  • Lista de países
  • Para 7 días
  • Temperatura del agua
  • El tiempo en el mapa
  • Informadores
  • user-avatar
    Iniciar sesión

    Tiempo cada hora Mairena del Aljarafe

    Hoy, 29 Enero, Miércoles

    Tiempo Temperatura Precipitaciones Viento Presión Humedad
    00:00 +12°C° 0 mm 1 mps 763 mmHg 92%
    01:00 +12°C° 0 mm 1 mps 763 mmHg 92%
    02:00 +11°C° 0 mm 1 mps 762 mmHg 93%
    03:00 +11°C° 0 mm 1 mps 762 mmHg 93%
    04:00 +11°C° 0 mm 1 mps 762 mmHg 93%
    05:00 +11°C° 0 mm 1 mps 762 mmHg 93%
    06:00 +11°C° 0 mm 1 mps 762 mmHg 93%
    07:00 +11°C° 0 mm 1 mps 762 mmHg 91%
    08:00 +12°C° 0 mm 2 mps 762 mmHg 90%
    09:00 +13°C° 0 mm 2 mps 763 mmHg 88%
    10:00 +14°C° 0 mm 2 mps 763 mmHg 83%
    11:00 +15°C° 0 mm 2 mps 763 mmHg 78%
    12:00 +17°C° 0 mm 2 mps 763 mmHg 73%
    13:00 +18°C° 0 mm 1 mps 762 mmHg 71%
    14:00 +19°C° 0 mm 1 mps 762 mmHg 68%
    15:00 +19°C° 0 mm 1 mps 761 mmHg 65%
    16:00 +18°C° 0 mm 1 mps 761 mmHg 70%
    17:00 +16°C° 0 mm 1 mps 762 mmHg 75%
    18:00 +15°C° 0 mm 1 mps 762 mmHg 81%
    19:00 +14°C° 0 mm 1 mps 762 mmHg 83%
    20:00 +14°C° 0 mm 1 mps 762 mmHg 85%
    21:00 +13°C° 0 mm 1 mps 762 mmHg 88%
    22:00 +13°C° 0 mm 1 mps 763 mmHg 88%
    23:00 +12°C° 0 mm 1 mps 763 mmHg 89%

    Mañana, 30 Enero, Jueves

    Tiempo Temperatura Precipitaciones Viento Presión Humedad
    00:00 +11°C° 0 mm 0 mps 763 mmHg 89%
    01:00 +11°C° 0 mm 0 mps 763 mmHg 90%
    02:00 +11°C° 0 mm 0 mps 762 mmHg 90%
    03:00 +10°C° 0 mm 0 mps 762 mmHg 90%
    04:00 +10°C° 0 mm 0 mps 762 mmHg 90%
    05:00 +9°C° 0 mm 0 mps 762 mmHg 91%
    06:00 +9°C° 0 mm 0 mps 762 mmHg 91%
    07:00 +10°C° 0 mm 0 mps 762 mmHg 89%
    08:00 +10°C° 0 mm 0 mps 763 mmHg 87%
    09:00 +11°C° 0 mm 0 mps 763 mmHg 85%
    10:00 +13°C° 0 mm 0 mps 763 mmHg 79%
    11:00 +15°C° 0 mm 1 mps 763 mmHg 73%
    12:00 +18°C° 0 mm 1 mps 763 mmHg 67%
    13:00 +18°C° 0 mm 1 mps 763 mmHg 65%
    14:00 +18°C° 0 mm 2 mps 762 mmHg 63%
    15:00 +18°C° 0 mm 2 mps 762 mmHg 60%
    16:00 +17°C° 0 mm 2 mps 762 mmHg 67%
    17:00 +16°C° 0 mm 2 mps 762 mmHg 73%
    18:00 +14°C° 0 mm 2 mps 762 mmHg 80%
    19:00 +14°C° 0 mm 1 mps 762 mmHg 83%
    20:00 +13°C° 0 mm 1 mps 763 mmHg 87%
    21:00 +13°C° 0 mm 1 mps 763 mmHg 90%
    22:00 +12°C° 0 mm 1 mps 763 mmHg 90%
    23:00 +11°C° 0 mm 0 mps 763 mmHg 90%

    Pasado mañana, 31 Enero, Viernes

    Tiempo Temperatura Precipitaciones Viento Presión Humedad
    00:00 +11°C° 0 mm 0 mps 763 mmHg 90%
    01:00 +10°C° 0 mm 0 mps 763 mmHg 91%
    02:00 +10°C° 0 mm 0 mps 763 mmHg 91%
    03:00 +11°C° 0 mm 1 mps 763 mmHg 91%
    04:00 +11°C° 0 mm 1 mps 763 mmHg 91%
    05:00 +11°C° 0 mm 1 mps 762 mmHg 91%
    06:00 +11°C° 0 mm 1 mps 762 mmHg 91%
    07:00 +11°C° 0 mm 1 mps 762 mmHg 90%
    08:00 +12°C° 0 mm 1 mps 763 mmHg 88%
    09:00 +12°C° 0 mm 1 mps 763 mmHg 87%
    10:00 +14°C° 0 mm 1 mps 763 mmHg 80%
    11:00 +16°C° 0 mm 1 mps 763 mmHg 74%
    12:00 +18°C° 0 mm 1 mps 763 mmHg 68%
    13:00 +19°C° 0 mm 1 mps 762 mmHg 65%
    14:00 +19°C° 0 mm 1 mps 762 mmHg 61%
    15:00 +20°C° 0 mm 1 mps 761 mmHg 57%
    16:00 +19°C° 0 mm 1 mps 761 mmHg 63%
    17:00 +16°C° 0 mm 1 mps 761 mmHg 68%
    18:00 +15°C° 0 mm 2 mps 761 mmHg 74%
    19:00 +14°C° 0 mm 1 mps 762 mmHg 77%
    20:00 +14°C° 0 mm 1 mps 762 mmHg 79%
    21:00 +12°C° 0 mm 0 mps 762 mmHg 82%
    22:00 +12°C° 0 mm 0 mps 762 mmHg 82%
    23:00 +12°C° 0 mm 0 mps 762 mmHg 82%

    1 Febrero, Sábado

    Tiempo Temperatura Precipitaciones Viento Presión Humedad
    00:00 +12°C° 0 mm 0 mps 762 mmHg 82%
    01:00 +11°C° 0 mm 0 mps 762 mmHg 84%
    02:00 +12°C° 0 mm 1 mps 762 mmHg 85%
    03:00 +12°C° 0 mm 1 mps 762 mmHg 86%
    04:00 +11°C° 0 mm 1 mps 762 mmHg 86%
    05:00 +11°C° 0 mm 1 mps 762 mmHg 87%
    06:00 +11°C° 0 mm 1 mps 762 mmHg 87%
    07:00 +12°C° 0 mm 1 mps 762 mmHg 84%
    08:00 +12°C° 0 mm 2 mps 763 mmHg 82%
    09:00 +13°C° 0 mm 2 mps 763 mmHg 79%
    10:00 +15°C° 0 mm 2 mps 763 mmHg 73%
    11:00 +17°C° 0 mm 3 mps 763 mmHg 67%
    12:00 +19°C° 0 mm 3 mps 763 mmHg 61%
    13:00 +20°C° 0 mm 3 mps 763 mmHg 58%
    14:00 +20°C° 0 mm 3 mps 762 mmHg 55%
    15:00 +21°C° 0 mm 2 mps 762 mmHg 51%
    16:00 +19°C° 0 mm 2 mps 762 mmHg 56%
    17:00 +18°C° 0 mm 2 mps 762 mmHg 61%
    18:00 +16°C° 0 mm 1 mps 762 mmHg 66%
    19:00 +16°C° 0 mm 1 mps 762 mmHg 67%
    20:00 +15°C° 0 mm 2 mps 762 mmHg 69%
    21:00 +15°C° 0 mm 2 mps 763 mmHg 70%
    22:00 +14°C° 0 mm 2 mps 763 mmHg 71%
    23:00 +14°C° 0 mm 2 mps 763 mmHg 72%

    2 Febrero, Domingo

    Tiempo Temperatura Precipitaciones Viento Presión Humedad
    00:00 +14°C° 0 mm 2 mps 763 mmHg 73%
    01:00 +13°C° 0 mm 2 mps 763 mmHg 74%
    02:00 +13°C° 0 mm 2 mps 762 mmHg 75%
    03:00 +13°C° 0 mm 2 mps 762 mmHg 77%
    04:00 +13°C° 0 mm 2 mps 762 mmHg 78%
    05:00 +12°C° 0 mm 2 mps 762 mmHg 79%
    06:00 +12°C° 0 mm 2 mps 762 mmHg 81%
    07:00 +13°C° 0 mm 2 mps 763 mmHg 79%
    08:00 +14°C° 0 mm 2 mps 763 mmHg 78%
    09:00 +14°C° 0 mm 3 mps 764 mmHg 76%
    10:00 +16°C° 0 mm 2 mps 764 mmHg 70%
    11:00 +18°C° 0 mm 2 mps 764 mmHg 64%
    12:00 +20°C° 0 mm 2 mps 764 mmHg 57%
    13:00 +21°C° 0 mm 2 mps 763 mmHg 56%
    14:00 +23°C° 0 mm 2 mps 763 mmHg 54%
    15:00 +24°C° 0 mm 2 mps 763 mmHg 52%
    16:00 +22°C° 0 mm 1 mps 763 mmHg 58%
    17:00 +21°C° 0 mm 1 mps 763 mmHg 64%
    18:00 +19°C° 0 mm 1 mps 763 mmHg 70%
    19:00 +18°C° 0 mm 2 mps 763 mmHg 71%
    20:00 +17°C° 0 mm 2 mps 763 mmHg 73%
    21:00 +16°C° 0 mm 2 mps 763 mmHg 75%
    22:00 +16°C° 0 mm 2 mps 763 mmHg 76%
    23:00 +15°C° 0 mm 2 mps 763 mmHg 76%

    3 Febrero, Lunes

    Tiempo Temperatura Precipitaciones Viento Presión Humedad
    00:00 +15°C° 0 mm 2 mps 763 mmHg 77%
    01:00 +14°C° 0 mm 2 mps 763 mmHg 78%
    02:00 +14°C° 0 mm 2 mps 763 mmHg 78%
    03:00 +13°C° 0 mm 2 mps 763 mmHg 79%
    04:00 +13°C° 0 mm 2 mps 763 mmHg 80%
    05:00 +13°C° 0 mm 2 mps 762 mmHg 80%
    06:00 +13°C° 0 mm 2 mps 762 mmHg 80%
    07:00 +13°C° 0 mm 2 mps 763 mmHg 78%
    08:00 +13°C° 0 mm 3 mps 763 mmHg 76%
    09:00 +14°C° 0 mm 3 mps 763 mmHg 74%
    10:00 +17°C° 0 mm 3 mps 763 mmHg 68%
    11:00 +19°C° 0 mm 3 mps 763 mmHg 62%
    12:00 +21°C° 0 mm 3 mps 763 mmHg 56%
    13:00 +23°C° 0 mm 2 mps 762 mmHg 54%
    14:00 +24°C° 0 mm 2 mps 762 mmHg 51%
    15:00 +24°C° 0 mm 2 mps 761 mmHg 48%
    16:00 +23°C° 0 mm 2 mps 761 mmHg 55%
    17:00 +20°C° 0 mm 2 mps 761 mmHg 61%
    18:00 +19°C° 0 mm 1 mps 761 mmHg 67%
    19:00 +17°C° 0 mm 2 mps 762 mmHg 68%
    20:00 +17°C° 0 mm 2 mps 762 mmHg 70%
    21:00 +16°C° 0 mm 2 mps 762 mmHg 71%
    22:00 +16°C° 0 mm 2 mps 762 mmHg 72%
    23:00 +15°C° 0 mm 2 mps 763 mmHg 73%
    Mostrar más